Regional Weather Roundup
Issued by NWS Cleveland, OH

Home | Current Version | Previous Version | Text Only | Print | Product List | Glossary Off
Versions: 1 2 3 4 5 6 7 8 9 10 11 12 13 14 15 16 17 18 19 20 21 22 23 24 25 26 27 28 29 30 31 32 33 34 35 36 37 38 39 40 41 42 43 44 45 46 47 48 49 50

000
ASUS41 KCLE 041402
RWRCLE
OHIO REGIONAL WEATHER ROUNDUP
NATIONAL WEATHER SERVICE CLEVELAND, OH
1000 AM EDT TUE AUG 04 2015

NOTE: "FAIR" INDICATES FEW OR NO CLOUDS BELOW 12,000 FEET WITH NO
SIGNIFICANT WEATHER AND/OR OBSTRUCTIONS TO VISIBILITY.

OHZ001>008-015>018-024>027-034-035-043-044-041500-
   NORTHWEST OHIO

CITY           SKY/WX    TMP DP  RH WIND       PRES   REMARKS
DEFIANCE       SUNNY     73  58  59 SW7       29.96S
FINDLAY        SUNNY     73  56  54 W8        29.96S
TOLEDO EXPRESS MOSUNNY   70  56  61 SW10      29.95R
TOLEDO EXEC    SUNNY     71  55  56 SW12      29.96R
LIMA           SUNNY     72  57  59 SW6       29.98S
$$

OHZ009>014-019>023-028>033-038-089-041500-
   NORTHEAST OHIO

CITY           SKY/WX    TMP DP  RH WIND       PRES   REMARKS
CLE-HOPKINS    SUNNY     71  55  56 SW10      29.98S
CLE-LAKEFRONT  SUNNY     74  58  57 SW10      29.95R
CUY CO. ARPT   MOSUNNY   73  61  64 SW7       29.97R
LORAIN-ELYRIA  SUNNY     70  54  56 W7        29.98R
ASHTABULA      SUNNY     71  62  73 SW9       29.96S
AKRON-CANTON   SUNNY     73  52  47 W8        29.98S
WOOSTER        SUNNY     72  54  53 VRB3      29.99S
MANSFIELD      SUNNY     72  54  53 VRB5      29.99S
YOUNGSTOWN     MOSUNNY   72  58  61 W9        29.97S
$$

OHZ042-051>053-060>062-070>072-077>081-041500-
  SOUTHWEST OHIO

CITY           SKY/WX    TMP DP  RH WIND       PRES   REMARKS
CINC-COVINGTON MOSUNNY   75  67  76 CALM      29.99S
CINC-LUNKEN    MOSUNNY   71  70  96 MISG      29.99S FOG
HAMILTON       SUNNY     76  65  68 CALM      29.99S
DAYTON         MOSUNNY   74  54  49 S6        30.00S
WRIGHT-PAT AFB SUNNY     74  55  51 S5        29.99R
DAYTON GENERAL SUNNY     75  55  49 S6        29.99R
WILMINGTON     SUNNY     74  56  53 S7        29.99S
$$

OHZ036-037-039>041-045>050-054>059-063>069-073>076-082>088-041500-
  CENTRAL AND SOUTHEAST OHIO

CITY           SKY/WX    TMP DP  RH WIND       PRES   REMARKS
COLUMBUS       MOSUNNY   73  54  51 S5        29.99R
OSU AIRPORT    SUNNY     74  56  53 SW6       29.99R
BOLTON FIELD   MOSUNNY   73  59  60 S7        30.00R
RICKENBACK AFB MOSUNNY   71  62  72 S5        29.99R
NEWARK         SUNNY     73  55  53 CALM      29.99R
MARION         SUNNY     72  58  61 S6        29.99R
LANCASTER      SUNNY     74  54  49 VRB3      30.00R
ZANESVILLE     SUNNY     73  52  47 S6        30.00R
NEW PHILLY     SUNNY     70  57  63 CALM      29.99S
$$



USA.gov is the U.S. government's official web portal to all federal, state and local government web resources and services.